[[{"header":{"parameterUnit":"m.s-1","parameterCategory":1,"la1":30.2991,"la2":30.254,"lo1":-89.0895,"lo2":-89.0444,"dy":0.0017,"dx":0.0017,"nx":28,"ny":28,"refTime":"2024-02-14T09:00:00:Z","depth":0,"parameterNumber":2,"parameterNumberName":"U-component_of_WINDS"},"data":[0,0,0,0,0,0,0,0,0,0,0,0,0,0,0,0,0,0,0,0,0,0,0,0,0,0,0,0,0,0,0,0,0,0,0,0,0,0,0,0,0,0,0,0,0,0,0,0,0,0,0,0,0,0,0,0,0,0,-2.35,-2.35,0,-2.3502,-2.3502,-2.3502,-2.3423,-2.3421,-2.3419,-2.3417,-2.342,-2.3422,-2.3424,0,0,0,0,0,0,0,0,0,0,0,0,0,-2.3428,-2.343,-2.35,-2.35,-2.35,-2.3502,-2.3502,-2.3502,-2.3423,-2.3421,-2.3418,-2.3416,-2.3419,-2.3422,-2.3424,0,0,0,0,0,0,0,0,0,0,0,0,0,-2.3448,-2.3431,-2.35,-2.3461,-2.3457,-2.3502,-2.3502,-2.3502,-2.3424,-2.342,-2.3417,-2.3414,-2.3418,-2.3421,-2.3425,-2.3508,0,0,-2.3434,-2.3435,0,0,0,0,0,0,0,0,-2.3447,-2.3451,-2.3466,-2.3463,-2.346,-2.3459,-2.3478,-2.3504,-2.3424,-2.3436,-2.3416,-2.3413,-2.3436,-2.3437,-2.3445,-2.3508,-2.3508,-2.3434,-2.3436,-2.3438,-2.3438,0,0,0,0,0,0,0,-2.3446,-2.345,-2.3501,-2.3467,-2.3463,-2.3444,-2.3443,-2.3483,-2.3454,-2.3435,-2.3429,-2.3431,-2.3433,-2.3442,-2.3444,-2.3508,-2.3434,-2.3437,-2.3439,-2.344,-2.364,-2.3643,0,0,0,0,0,0,-2.345,-2.345,-2.3501,-2.3501,-2.3445,-2.3447,-2.3447,-2.3462,-2.3453,-2.3449,-2.3433,-2.3427,-2.3438,-2.3441,-2.3444,-2.354,-2.3438,-2.344,-2.3442,-2.3637,-2.3641,-2.3644,0,0,0,0,0,0,-2.3448,-2.3455,-2.3501,-2.3474,-2.3478,-2.3452,-2.347,-2.3464,-2.3473,-2.3452,-2.3446,-2.3447,-2.3436,-2.3439,-2.3492,-2.3539,-2.3442,-2.3445,-2.3633,-2.3638,-2.3643,-2.3734,0,0,0,0,0,0,-2.3447,-2.3455,-2.3486,-2.3475,-2.348,-2.3549,-2.3473,-2.3466,-2.3478,-2.347,-2.3464,-2.346,-2.3433,-2.3488,-2.3496,-2.3542,-2.3447,-2.3628,-2.3635,-2.3641,-2.3727,-2.3742,-2.3755,0,0,0,0,0,-2.3444,-2.3511,-2.3488,-2.3494,-2.3518,-2.3552,-2.3554,-2.3523,-2.3482,-2.3513,-2.35,-2.346,-2.3533,-2.3494,-2.3502,-2.355,-2.3625,-2.3633,-2.364,-2.372,-2.3739,-2.3754,0,0,0,0,0,0,-2.3528,-2.3509,-2.3482,-2.3548,-2.3552,-2.3538,-2.3576,-2.3543,-2.3559,-2.355,-2.3511,-2.351,-2.3569,-2.3565,-2.3522,-2.363,-2.3572,-2.3582,-2.363,-2.3647,-2.3661,-2.366,-2.345,0,0,0,0,0,-2.3554,-2.3583,-2.3565,-2.3625,-2.3628,-2.3602,-2.3616,-2.3591,-2.3594,-2.3595,-2.3586,-2.359,-2.3614,-2.3631,-2.3652,-2.3726,-2.3724,-2.3763,-2.3777,-2.3789,-2.3797,-2.3836,-2.3854,-2.367,-2.367,-2.367,0,0,-2.3608,-2.3602,-2.3622,-2.3641,-2.3641,-2.3673,-2.3604,-2.364,-2.3662,-2.36,-2.3649,-2.3643,-2.3646,-2.371,-2.3738,-2.3708,-2.3848,-2.3799,-2.3808,-2.381,-2.3846,-2.3864,-2.3879,-2.3675,-2.3674,-2.3673,0,0,-2.3722,-2.3721,-2.377,-2.3772,-2.3773,-2.3755,-2.3768,-2.3759,-2.3752,-2.3801,-2.3756,-2.3783,-2.3825,-2.3829,-2.3836,-2.3954,-2.3918,-2.3962,-2.4034,-2.4073,-2.4088,-2.41,-2.4142,-2.4157,-2.3971,-2.3971,-2.3971,0,-2.3789,-2.3834,-2.3799,-2.3838,-2.3848,-2.3794,-2.3844,-2.3848,-2.3857,-2.3865,-2.3832,-2.3884,-2.3882,-2.3946,-2.3975,-2.3984,-2.3996,-2.3962,-2.4088,-2.4101,-2.4112,-2.4151,-2.4167,-2.3977,-2.3976,-2.3975,-2.3975,0,-2.3916,-2.3948,-2.3988,-2.3997,-2.4012,-2.4056,-2.4029,-2.4049,-2.4024,-2.401,-2.4061,-2.4057,-2.4076,-2.409,-2.4066,-2.4151,-2.4133,-2.4095,-2.4036,-2.4135,-2.4172,-2.4186,-2.3984,-2.3982,-2.3981,-2.3979,0,0,-2.4081,-2.4072,-2.4087,-2.4091,-2.4089,-2.4113,-2.4156,-2.4175,-2.4192,-2.4201,-2.4235,-2.4273,-2.4238,-2.4247,-2.4223,-2.4258,-2.4351,-2.4215,-2.4215,-2.424,-2.4445,-2.4473,-2.4491,-2.4328,-2.433,-2.4333,-2.4445,0,-2.4191,-2.4262,-2.4233,-2.4307,-2.4337,-2.4287,-2.4324,-2.4328,-2.4317,-2.434,-2.4328,-2.4356,-2.4308,-2.4313,-2.4345,-2.4333,-2.4391,-2.4325,-2.4359,-2.4361,-2.4359,-2.451,-2.4539,-2.4645,-2.4459,-2.4461,-2.4463,0,-2.4328,-2.4342,-2.442,-2.4413,-2.4425,-2.4458,-2.4474,-2.4497,-2.4501,-2.449,-2.4501,-2.447,-2.4512,-2.4455,-2.4512,-2.4467,-2.448,-2.4477,-2.448,-2.4481,-2.4417,-2.4514,-2.4678,-2.4693,-2.4485,-2.4483,-2.4481,0,-2.444,-2.4479,-2.4529,-2.4535,-2.4529,-2.4554,-2.4553,-2.4553,-2.4567,-2.4581,-2.4589,-2.4609,-2.4619,-2.4635,-2.461,-2.457,-2.4671,-2.4611,-2.4664,-2.4665,-2.4686,-2.4684,-2.4853,-2.4697,-2.4696,-2.4696,-2.4696,0,-2.4565,-2.4614,-2.458,-2.4611,-2.4665,-2.4632,-2.4686,-2.468,-2.4681,-2.471,-2.4669,-2.4698,-2.4664,-2.469,-2.4671,-2.4722,-2.4727,-2.472,-2.4714,-2.4723,-2.4724,-2.473,-2.4721,-2.47,-2.4699,-2.4698,-2.4698,0,-2.4699,-2.4677,-2.4729,-2.472,-2.4719,-2.4759,-2.4752,-2.4781,-2.4768,-2.4806,-2.4813,-2.4792,-2.4821,-2.4798,-2.4826,-2.4813,-2.488,-2.4864,-2.4879,-2.4874,-2.4927,-2.4922,-2.5104,-2.5126,-2.4957,-2.4959,-2.496,0,-2.4779,-2.4816,-2.4811,-2.4827,-2.4829,-2.4857,-2.487,-2.484,-2.4857,-2.4864,-2.4892,-2.4917,-2.4935,-2.4984,-2.4971,-2.4993,-2.4977,-2.5039,-2.498,-2.4988,-2.4977,-2.4975,-2.4978,-2.5051,-2.5053,-2.5055,-2.5056,0,-2.4924,-2.4912,-2.4933,-2.4952,-2.4969,-2.4982,-2.4992,-2.5008,-2.4978,-2.4998,-2.5027,-2.5041,-2.507,-2.5095,-2.5113,-2.5112,-2.508,-2.5075,-2.5088,-2.5097,-2.5103,-2.51,-2.491,-2.5071,-2.5069,-2.5068,-2.5067,-2.5067,-2.5033,-2.5063,-2.5064,-2.509,-2.5094,-2.5105,-2.5131,-2.5122,-2.5145,-2.5166,-2.5147,-2.5182,-2.5185,-2.5206,-2.5209,-2.5236,-2.521,-2.523,-2.5234,-2.5239,-2.5246,-2.51,-2.524,-2.5239,-2.5239,-2.5238,-2.5238,0,-2.5175,-2.5174,-2.5198,-2.5213,-2.5233,-2.5201,-2.521,-2.5229,-2.526,-2.5266,-2.5285,-2.5319,-2.5344,-2.5334,-2.5356,-2.538,-2.5366,-2.5387,-2.5384,-2.5384,-2.5268,-2.5254,-2.5398,-2.5398,-2.5398,-2.5398,-2.5398,-2.5398,-2.5251,-2.5301,-2.529,-2.5341,-2.534,-2.5373,-2.5381,-2.5391,-2.5395,-2.5434,-2.5455,-2.5449,-2.5449,-2.5471,-2.5493,-2.5489,-2.5499,-2.5526,-2.5517,-2.5408,-2.5393,-2.5377,-2.5364,-2.5528,-2.5529,-2.563,-2.5631,-2.5632]},{"header":{"parameterUnit":"m.s-1","parameterCategory":1,"la1":30.2991,"la2":30.254,"lo1":-89.0895,"lo2":-89.0444,"dy":0.0017,"dx":0.0017,"nx":28,"ny":28,"refTime":"2024-02-14T09:00:00:Z","depth":0,"parameterNumber":3,"parameterNumberName":"V-component_of_WINDS"},"data":[0,0,0,0,0,0,0,0,0,0,0,0,0,0,0,0,0,0,0,0,0,0,0,0,0,0,0,0,0,0,0,0,0,0,0,0,0,0,0,0,0,0,0,0,0,0,0,0,0,0,0,0,0,0,0,0,0,0,2.51,2.51,0,2.5122,2.5122,2.5123,2.5148,2.5148,2.5148,2.5149,2.517,2.517,2.517,0,0,0,0,0,0,0,0,0,0,0,0,0,2.5077,2.5077,2.51,2.51,2.51,2.5122,2.5122,2.5123,2.5148,2.5148,2.5149,2.5149,2.517,2.517,2.517,0,0,0,0,0,0,0,0,0,0,0,0,0,2.5092,2.5077,2.51,2.5115,2.5117,2.5122,2.5122,2.5123,2.5148,2.5148,2.5149,2.5149,2.517,2.517,2.517,2.5161,0,0,2.5171,2.5171,0,0,0,0,0,0,0,0,2.5091,2.5092,2.5113,2.5114,2.5116,2.5133,2.5122,2.5135,2.5147,2.5136,2.5149,2.5149,2.5157,2.5158,2.5161,2.5162,2.5163,2.5171,2.5171,2.5171,2.5172,0,0,0,0,0,0,0,2.509,2.5092,2.5109,2.5113,2.5115,2.5121,2.5124,2.5125,2.5143,2.5137,2.5139,2.5141,2.5158,2.5161,2.5162,2.5163,2.5171,2.5171,2.5172,2.5172,2.5157,2.5156,0,0,0,0,0,0,2.5087,2.5091,2.5108,2.5109,2.5105,2.5121,2.5124,2.5127,2.5143,2.5146,2.5141,2.5142,2.516,2.5161,2.5163,2.5153,2.5171,2.5172,2.5172,2.5158,2.5157,2.5156,0,0,0,0,0,0,2.5086,2.5088,2.5107,2.51,2.5103,2.5121,2.5124,2.5127,2.513,2.5146,2.5149,2.514,2.516,2.5162,2.5161,2.5154,2.5172,2.5172,2.5158,2.5157,2.5157,2.5132,0,0,0,0,0,0,2.5085,2.5087,2.5084,2.51,2.5104,2.5106,2.5123,2.5127,2.5131,2.5133,2.5146,2.5149,2.5161,2.5161,2.5161,2.5154,2.5172,2.5159,2.5158,2.5157,2.5134,2.5131,2.5128,0,0,0,0,0,2.5084,2.5076,2.5084,2.5086,2.51,2.5105,2.5107,2.5121,2.513,2.5127,2.5137,2.5149,2.5154,2.516,2.5161,2.5154,2.5159,2.5158,2.5157,2.5135,2.5131,2.5128,0,0,0,0,0,0,2.5058,2.5079,2.5088,2.5085,2.5093,2.5109,2.5106,2.5117,2.5122,2.5124,2.5141,2.5144,2.5141,2.5148,2.5154,2.5146,2.5159,2.5157,2.5142,2.5138,2.5135,2.5133,2.5173,0,0,0,0,0,2.5052,2.5055,2.5073,2.5068,2.5072,2.5088,2.5091,2.5101,2.511,2.5114,2.5124,2.5132,2.5135,2.5137,2.5141,2.5135,2.5138,2.5131,2.5128,2.5125,2.5124,2.5121,2.5118,2.5152,2.5152,2.5152,0,0,2.504,2.5051,2.5052,2.5063,2.5071,2.5073,2.5091,2.5092,2.5094,2.5114,2.5114,2.5121,2.5131,2.5127,2.5126,2.5133,2.5115,2.5124,2.5122,2.5122,2.5119,2.5116,2.5113,2.5151,2.5151,2.5151,0,0,2.5018,2.5027,2.5025,2.5032,2.5044,2.5055,2.5054,2.5069,2.5075,2.5075,2.5091,2.5092,2.5098,2.5104,2.5108,2.5089,2.51,2.509,2.5075,2.5072,2.5069,2.5066,2.5059,2.5056,2.5089,2.5089,2.5089,0,2.5001,2.5005,2.5022,2.5022,2.5027,2.5046,2.5043,2.5049,2.5061,2.5064,2.5071,2.5079,2.5087,2.5085,2.508,2.5083,2.5082,2.5088,2.5068,2.5066,2.5064,2.5057,2.5054,2.5088,2.5088,2.5088,2.5088,0,2.4983,2.4986,2.4982,2.4994,2.4998,2.4997,2.5013,2.5015,2.5025,2.5035,2.5035,2.5045,2.5052,2.5052,2.5062,2.5051,2.5055,2.5065,2.5078,2.5059,2.5053,2.505,2.5086,2.5086,2.5087,2.5087,0,0,2.4945,2.4967,2.4965,2.4971,2.4985,2.4987,2.4987,2.4994,2.4995,2.5003,2.5003,2.5007,2.5017,2.5021,2.5032,2.5029,2.5013,2.504,2.504,2.5034,2.5001,2.4993,2.499,2.5021,2.502,2.502,2.5,0,2.4925,2.4926,2.4941,2.4937,2.494,2.4958,2.4958,2.4966,2.4976,2.4979,2.4989,2.4992,2.5004,2.5007,2.5005,2.5015,2.5006,2.5017,2.5019,2.5019,2.5016,2.4987,2.4978,2.4959,2.4998,2.4998,2.4997,0,2.4902,2.4909,2.4906,2.4921,2.4922,2.4922,2.493,2.4932,2.4942,2.4949,2.4954,2.4967,2.4967,2.498,2.4979,2.4986,2.4988,2.4993,2.4993,2.4993,2.5006,2.4985,2.4953,2.495,2.4994,2.4994,2.4994,0,2.4874,2.4883,2.4882,2.4886,2.4904,2.4903,2.491,2.4921,2.4924,2.4931,2.4933,2.4939,2.4942,2.4946,2.496,2.4968,2.4958,2.4972,2.4963,2.4962,2.4959,2.4959,2.4926,2.4961,2.4962,2.4962,2.4962,0,2.485,2.4847,2.4869,2.4869,2.4866,2.4883,2.488,2.4889,2.4898,2.4899,2.4916,2.4916,2.4934,2.4936,2.4947,2.4945,2.4946,2.4951,2.4954,2.4949,2.4948,2.495,2.4951,2.4961,2.4961,2.4961,2.4961,0,2.4817,2.4832,2.4833,2.485,2.4854,2.4851,2.4865,2.4865,2.4875,2.4876,2.4877,2.4894,2.4897,2.4911,2.4918,2.4925,2.4919,2.4925,2.4916,2.4917,2.4907,2.4908,2.4874,2.487,2.4908,2.4908,2.4908,0,2.48,2.4799,2.4816,2.4818,2.4825,2.4828,2.4832,2.4849,2.4852,2.4863,2.4861,2.4866,2.4871,2.4876,2.4888,2.4893,2.4898,2.4886,2.4899,2.4894,2.4897,2.4897,2.4896,2.4883,2.4882,2.4882,2.4882,0,2.4769,2.4777,2.4782,2.479,2.4794,2.48,2.4808,2.4809,2.4828,2.483,2.4834,2.4838,2.4845,2.485,2.4857,2.4864,2.4875,2.4878,2.4876,2.487,2.4865,2.4867,2.4907,2.4878,2.4878,2.4879,2.4879,2.4879,2.4744,2.4743,2.4755,2.476,2.4768,2.4774,2.4775,2.4786,2.479,2.4798,2.4807,2.481,2.482,2.4831,2.4837,2.4839,2.4845,2.4843,2.4842,2.4841,2.4838,2.4865,2.484,2.484,2.484,2.484,2.484,0,2.4712,2.4721,2.4726,2.4736,2.474,2.4752,2.4761,2.4763,2.4766,2.4774,2.4779,2.4784,2.4788,2.48,2.4806,2.4805,2.4811,2.4806,2.4806,2.4807,2.4832,2.4833,2.4801,2.4801,2.4801,2.4801,2.4801,2.4801,2.4697,2.4696,2.4705,2.4708,2.4717,2.4721,2.4725,2.4731,2.4738,2.4742,2.4746,2.4755,2.4765,2.4771,2.4775,2.4779,2.478,2.4773,2.4778,2.4801,2.4805,2.4809,2.4809,2.4773,2.4773,2.4753,2.4752,2.4752]}]]